Tracking 19245 objects as of 18-Aug-2018
HD Live streaming from Space Station
objects crossing your sky now

FENGYUN 1C DEB

Track FENGYUN 1C DEB now!
10-day predictions


NORAD ID: 29974
Int'l Code: 1999-025KY
Perigee: 847.8 km
Apogee: 919.7 km
Inclination: 99.0 °
Period: 102.5 minutes
Semi major axis: 7254 km
RCS: 0.038 m2 (small)
Launch date: May 10, 1999
Source: People's Republic of China (PRC)
Launch site: Taiyaun Space Center, China (TSC)

Note: This is SATELLITE DEBRIS
aabbcc
Your satellite tracking list
Your tracking list is empty




NASA's NSSDC Master Catalog

Two Line Element Set (TLE):
1 29974U 99025KY  18230.12895449  .00000238  00000-0  17355-3 0  9999
2 29974  99.0487 296.9758 0049557  10.3016  46.9780 14.04990640593173
Source of the keplerian elements: AFSPC